Location: Hodgeman County Ambulance
(38.0844°N, 99.8949°W)
Time: 00:29:55
(UTC+00:00)

OE (NEXTSAT) - Pass Details

Date: 27 October 2020
Orbit: 429 x 437 km, 46.0° (Epoch: 04 December)

Event Time Altitude Azimuth Distance (km) Brightness Sun altitude
Exits shadow 12:06:51 - 234° (SW) 1,564 6.7 -11.2°
Reaches altitude 10° 12:06:57 10° 234° (SW) 1,529 6.7 -11.2°
Maximum altitude 12:10:24 76° 148° (SSE) 451 4.5 -10.5°
Drops below altitude 10° 12:13:52 10° 63° (ENE) 1,541 8.0 -9.9°
Sets 12:16:00 0° 62° (ENE) 2,414 9.0 -9.4°
